Torna al catalogo

STARLINK-6165

AttivoComunicazioniVLEO
NORAD 57127·PAYLOAD·🇺🇸 United States

Lanciato Jun 23, 2023 da Cape Canaveral Space Force Station

Loading…

Prossimi Passaggi (prossime 24 ore)

TLE

AggiornatoSource: CelesTrak SupGP

Epoca: Sep 14, 2026, 20:56 UTC

1 57127C 23090AC  26257.87270833 -.00030425  00000+0 -11021-2 0  2575
2 57127  42.9997 292.9559 0001619 262.6367 242.3205 15.27590481    15

Traccia STARLINK-6165 in tempo reale con AllMySat

Download on the App Store